Temp
4 5 5 5 5 5 5 6 6 6 6 6 7 7 7 7 8 8 8 7 7 7 7 8 8 8 8 8 9 9 9 9 9 9 9 9 9 9 8 8 8 8 8 8 8 8 8
4 4 5 5 5 5 6 6 6 6 6 7 7 7 7 8 8 8 8 7 7 7 8 8 8 8 8 9 9 9 9 9 9 9 9 9 9 9 8 8 8 8 8 8 8 8 8
4 4 5 5 5 5 6 6 6 6 6 7 7 7 8 8 8 8 8 8 8 8 8 8 8 8 9 9 9 9 9 9 9 9 9 9 8 8 8 8 8 8 8 8 8 8 8
4 4 4 5 5 5 5 6 6 6 6 7 7 7 7 8 8 8 8 8 8 8 8 8 8 8 9 9 9 9 9 9 9 9 9 9 8 8 8 8 8 8 8 8 8 8 8
4 4 4 4 5 5 5 5 6 6 6 6 7 7 7 8 8 8 8 8 8 8 8 8 8 9 9 9 9 9 9 9 9 9 8 8 8 8 8 8 8 8 8 8 8 8 7
4 4 4 4 4 5 5 5 5 6 6 6 7 7 7 8 8 8 8 8 8 8 9 9 9 9 9 9 9 9 9 9 9 8 8 8 8 8 8 8 8 8 7 8 8 7 7
4 4 4 4 4 4 5 5 5 6 6 6 6 7 7 7 7 8 8 8 8 8 9 9 9 9 8 8 8 8 8 8 8 8 8 8 8 8 8 8 7 7 7 7 7 6 7
4 4 4 4 4 5 5 5 5 5 6 6 6 6 7 7 7 7 7 7 8 8 9 9 9 9 8 8 8 8 8 8 8 8 8 8 8 8 8 7 7 7 7 7 7 6 6
4 4 4 5 5 5 5 5 5 5 5 6 6 6 6 6 7 7 7 7 7 7 8 9 9 9 8 8 7 7 7 7 7 8 7 7 8 8 7 7 7 7 6 6 5 5 5
4 4 4 4 4 5 5 5 5 5 6 6 6 6 6 6 6 6 6 7 7 7 8 9 8 8 8 7 7 7 7 7 7 7 7 7 8 8 7 7 6 6 6 5 5 4 3
3 3 4 4 4 4 4 4 5 5 5 6 6 6 6 6 6 6 6 6 6 7 2 8 7 8 7 7 7 7 7 7 7 7 6 7 7 6 6 7 6 5 5 5 4 4 2
3 3 3 3 4 4 4 4 4 5 5 5 5 5 6 6 6 6 6 6 6 6 5 8 8 8 7 7 7 6 7 7 7 6 6 6 6 6 6 6 5 5 4 4 4 3 -1
2 3 3 3 3 3 4 4 4 4 5 5 5 5 5 5 6 6 6 6 5 6 8 7 7 7 7 7 6 6 6 7 6 6 6 6 6 6 6 6 5 5 4 3 1 -2 -1
2 2 2 3 3 3 3 3 4 4 4 4 5 5 5 5 5 5 5 5 4 7 7 7 7 6 6 6 6 6 6 6 6 5 5 5 5 7 6 6 5 5 4 4 1 -0 -0
1 2 2 2 2 2 2 3 3 3 4 4 4 4 4 5 5 5 4 4 5 6 6 6 6 6 6 6 5 5 5 5 6 5 5 5 4 5 5 5 5 4 3 4 3 1 -2
1 1 1 1 1 2 2 2 2 3 3 3 4 4 4 4 4 4 4 4 4 5 5 5 4 5 4 5 5 5 5 5 5 6 5 4 4 4 4 4 4 3 3 2 1 -1 -2
0 0 1 0 0 0 1 1 1 2 2 2 3 3 3 2 2 2 2 3 4 4 4 3 3 3 3 3 3 3 4 4 4 4 4 4 3 3 2 2 3 3 2 1 1 1 -2
-1 -1 -0 -0 -1 -1 -1 -0 0 1 0 0 0 1 1 0 1 1 2 2 2 2 2 2 2 2 2 2 2 2 2 2 3 2 2 3 2 2 2 1 1 1 2 2 1 -0 -1
-2 -1 -1 -1 -0 -0 -0 -1 -0 -0 0 -0 -0 0 1 1 0 0 0 0 -0 -0 0 0 0 1 1 1 1 1 1 1 1 2 2 1 1 0 1 1 0 0 1 1 1 1 0
-3 -3 -3 -2 -2 -3 -3 -2 -2 -1 -0 -1 -1 -1 -1 -0 -1 -1 -1 -1 -1 -1 -1 -1 -1 -0 -0 -0 -0 0 0 0 0 1 1 0 -0 -0 -1 1 0 0 1 0 0 -2 -2
-2 -2 -3 -2 -2 -2 -2 -2 -2 -2 -2 -3 -3 -3 -3 -2 -2 -2 -3 -3 -3 -3 -2 -2 -2 -1 -2 -2 -1 -1 -1 -1 -1 -0 -0 -1 -1 -1 -1 -1 -1 -1 -1 -2 -2 -2 -3
-3 -3 -3 -3 -3 -3 -3 -3 -4 -3 -3 -3 -4 -5 -6 -5 -5 -3 -4 -4 -3 -3 -3 -3 -3 -2 -2 -2 -2 -2 -2 -2 -2 -2 -2 -2 -2 -2 -2 -2 -2 -2 -1 -2 -2 -2 -3
-4 -4 -4 -4 -4 -5 -5 -6 -6 -6 -6 -6 -6 -6 -7 -7 -8 -7 -6 -5 -4 -3 -3 -3 -3 -3 -3 -2 -3 -2 -2 -2 -2 -2 -2 -2 -3 -2 -3 -3 -3 -3 -1 -1 -0 -0 -1
-4 -4 -5 -5 -5 -5 -5 -6 -6 -7 -7 -7 -7 -7 -7 -7 -7 -8 -7 -6 -6 -5 -6 -5 -5 -6 -5 -4 -3 -3 -3 -3 -3 -2 -2 -2 -2 -3 -3 -3 -3 -1 -0 -1 -1 -1 -1
-5 -5 -5 -5 -5 -5 -5 -6 -6 -7 -7 -8 -8 -8 -8 -8 -8 -8 -8 -8 -8 -8 -7 -7 -7 -8 -8 -7 -7 -5 -4 -3 -2 -2 -2 -2 -3 -3 -3 -3 -2 -1 -2 -2 -2 -2 -2
-6 -6 -6 -5 -6 -6 -6 -6 -6 -7 -7 -7 -8 -8 -8 -8 -8 -9 -8 -9 -9 -9 -8 -8 -7 -8 -8 -8 -8 -6 -4 -4 -3 -3 -2 -1 -3 -3 -3 -3 -2 -3 -4 -5 -4 -5 -5
-6 -6 -6 -6 -6 -6 -6 -6 -6 -7 -8 -8 -8 -9 -9 -9 -9 -9 -10 -10 -9 -10 -10 -9 -9 -8 -8 -9 -9 -8 -7 -6 -6 -5 -5 -5 -4 -4 -3 -3 -5 -7 -7 -7 -7 -8 -7
-7 -7 -7 -7 -7 -7 -7 -7 -7 -8 -8 -9 -9 -10 -9 -9 -9 -9 -10 -11 -11 -10 -11 -10 -10 -10 -10 -10 -10 -9 -8 -9 -9 -9 -9 -9 -8 -7 -6 -5 -6 -8 -8 -8 -9 -8 -10
-7 -7 -7 -8 -8 -8 -8 -9 -9 -9 -9 -10 -9 -11 -11 -10 -10 -10 -10 -11 -11 -11 -11 -11 -10 -10 -11 -11 -11 -11 -10 -11 -10 -10 -9 -9 -10 -10 -10 -10 -10 -11 -11 -12 -13 -13 -13
Height
3141 3139 3138 3135 3133 3131 3129 3128 3126 3125 3124 3124 3124 3124 3124 3124 3124 3125 3125 3124 3124 3124 3123 3122 3121 3121 3121 3121 3120 3119 3119 3119 3118 3118 3117 3116 3116 3116 3116 3115 3114 3113 3112 3111 3110 3109 3108
3143 3141 3139 3137 3135 3134 3132 3131 3129 3128 3127 3126 3126 3126 3126 3126 3125 3125 3125 3124 3124 3123 3122 3121 3121 3120 3120 3120 3119 3118 3118 3118 3118 3117 3116 3116 3115 3115 3114 3114 3113 3112 3110 3109 3108 3107 3106
3145 3143 3141 3139 3137 3135 3134 3133 3131 3130 3129 3128 3127 3127 3126 3126 3126 3125 3124 3124 3123 3122 3121 3121 3120 3119 3119 3119 3117 3117 3117 3117 3117 3116 3115 3115 3114 3114 3113 3112 3111 3109 3109 3107 3107 3105 3104
3145 3144 3143 3141 3139 3137 3136 3134 3133 3131 3130 3129 3128 3128 3127 3126 3125 3125 3124 3123 3122 3121 3120 3120 3119 3118 3117 3116 3116 3116 3115 3115 3115 3114 3114 3113 3112 3111 3110 3110 3108 3107 3106 3105 3104 3102 3101
3146 3145 3143 3142 3140 3138 3137 3136 3133 3132 3131 3130 3129 3128 3128 3126 3125 3124 3123 3122 3121 3120 3119 3118 3118 3117 3116 3115 3114 3113 3113 3113 3112 3112 3111 3111 3110 3109 3108 3107 3106 3104 3103 3102 3101 3099 3098
3146 3145 3144 3143 3141 3139 3138 3136 3134 3133 3132 3130 3129 3129 3127 3126 3125 3124 3122 3121 3119 3118 3117 3116 3115 3117 3114 3113 3112 3111 3111 3110 3110 3109 3109 3109 3107 3106 3105 3104 3102 3101 3100 3099 3097 3097 3093
3146 3145 3143 3142 3141 3139 3138 3136 3134 3133 3132 3130 3129 3128 3126 3125 3124 3122 3121 3119 3120 3118 3114 3114 3113 3111 3110 3110 3109 3108 3108 3107 3106 3106 3106 3105 3104 3103 3102 3101 3100 3099 3097 3095 3094 3092 3088
3144 3144 3143 3141 3140 3139 3137 3135 3134 3132 3131 3129 3128 3127 3126 3124 3122 3121 3119 3117 3116 3115 3111 3109 3107 3106 3105 3105 3105 3104 3105 3105 3103 3103 3102 3103 3100 3099 3098 3098 3097 3095 3093 3091 3090 3087 3084
3143 3142 3141 3140 3139 3137 3135 3134 3132 3131 3129 3128 3127 3125 3124 3122 3121 3120 3118 3116 3114 3111 3107 3104 3102 3101 3101 3101 3100 3101 3101 3100 3100 3099 3099 3098 3097 3096 3095 3094 3093 3092 3090 3088 3086 3083 3080
3142 3141 3139 3138 3137 3136 3134 3132 3130 3128 3127 3126 3125 3123 3122 3120 3121 3117 3116 3114 3112 3109 3104 3100 3097 3096 3097 3097 3097 3097 3097 3099 3097 3096 3095 3094 3091 3091 3090 3090 3090 3087 3086 3084 3082 3080 3077
3139 3138 3138 3136 3135 3133 3132 3130 3128 3126 3125 3123 3122 3120 3119 3117 3116 3115 3114 3111 3109 3108 3104 3098 3094 3094 3094 3096 3095 3095 3095 3094 3093 3092 3093 3090 3088 3087 3086 3086 3086 3084 3082 3080 3078 3076 3072
3137 3135 3135 3133 3132 3130 3129 3127 3125 3123 3122 3120 3119 3117 3116 3114 3113 3111 3110 3108 3108 3108 3098 3094 3092 3091 3092 3092 3092 3091 3092 3091 3090 3087 3085 3084 3084 3083 3082 3081 3081 3079 3078 3077 3073 3071 3068
3133 3132 3131 3130 3128 3127 3125 3123 3121 3119 3118 3116 3114 3113 3112 3110 3109 3108 3107 3106 3107 3101 3096 3092 3090 3090 3090 3089 3088 3088 3086 3085 3086 3083 3081 3079 3078 3077 3076 3075 3075 3075 3075 3075 3072 3069 3062
3129 3127 3126 3125 3124 3122 3120 3118 3116 3114 3113 3113 3111 3109 3107 3106 3104 3103 3103 3103 3101 3094 3092 3090 3089 3087 3086 3086 3084 3082 3079 3078 3078 3078 3076 3075 3070 3070 3069 3069 3069 3068 3070 3070 3069 3065 3056
3124 3122 3121 3119 3117 3116 3114 3112 3110 3108 3106 3105 3105 3103 3101 3100 3099 3098 3098 3094 3090 3090 3089 3087 3086 3083 3080 3080 3080 3076 3073 3071 3073 3074 3074 3069 3064 3064 3064 3064 3065 3062 3062 3064 3061 3057 3056
3119 3117 3115 3113 3111 3109 3107 3105 3103 3101 3099 3097 3096 3097 3096 3094 3092 3091 3090 3084 3085 3085 3085 3083 3080 3080 3075 3075 3075 3072 3069 3066 3066 3067 3067 3064 3061 3057 3058 3058 3058 3058 3058 3058 3059 3058 3053
3113 3111 3109 3107 3105 3103 3101 3098 3096 3095 3092 3090 3089 3088 3088 3087 3086 3084 3080 3077 3077 3079 3079 3077 3073 3071 3070 3069 3068 3065 3063 3062 3061 3061 3062 3060 3058 3050 3050 3048 3050 3053 3050 3051 3051 3047 3043
3108 3105 3102 3101 3099 3097 3094 3091 3088 3087 3086 3084 3081 3081 3081 3079 3080 3075 3073 3072 3071 3070 3071 3069 3066 3064 3062 3062 3059 3058 3056 3057 3057 3056 3056 3055 3050 3042 3039 3041 3041 3042 3041 3042 3040 3036 3031
3101 3099 3097 3093 3091 3089 3086 3084 3081 3079 3078 3077 3074 3072 3073 3071 3070 3068 3066 3064 3062 3061 3061 3059 3057 3056 3055 3054 3054 3048 3047 3048 3049 3048 3046 3045 3041 3037 3032 3032 3030 3029 3029 3030 3030 3027 3019
3096 3094 3091 3088 3085 3083 3080 3077 3076 3072 3070 3070 3068 3064 3064 3063 3062 3060 3058 3055 3054 3055 3053 3053 3050 3050 3048 3045 3046 3040 3038 3040 3041 3040 3039 3037 3033 3031 3025 3023 3025 3024 3024 3023 3022 3015 3010
3089 3087 3083 3080 3077 3074 3070 3068 3065 3063 3061 3061 3059 3056 3054 3054 3056 3054 3054 3050 3047 3047 3048 3047 3042 3042 3041 3036 3034 3032 3032 3032 3032 3032 3030 3028 3019 3021 3011 3011 3015 3011 3009 3008 3006 3003 3000
3084 3081 3077 3073 3070 3066 3062 3059 3056 3054 3052 3052 3050 3047 3045 3044 3045 3043 3044 3040 3040 3039 3038 3037 3037 3034 3031 3028 3028 3021 3024 3022 3018 3018 3016 3013 3004 3006 2997 2999 3001 2997 2991 2992 2990 2986 2987
3083 3079 3075 3071 3067 3063 3059 3056 3052 3050 3047 3043 3041 3039 3035 3033 3034 3036 3037 3032 3032 3029 3027 3026 3022 3020 3018 3018 3011 3007 3007 3006 3007 3004 3004 3000 2997 2990 2985 2990 2989 2980 2967 2973 2973 2973 2972
3081 3077 3073 3069 3065 3061 3057 3054 3050 3047 3044 3041 3038 3034 3031 3026 3027 3027 3028 3028 3024 3021 3014 3014 3014 3008 3007 3003 2998 2996 2994 2992 2992 2990 2993 2990 2988 2983 2974 2982 2969 2957 2961 2961 2960 2960 2960
3079 3075 3070 3066 3061 3057 3053 3049 3046 3043 3039 3036 3033 3030 3026 3019 3020 3021 3019 3016 3014 3013 3010 3007 3005 3002 2997 2995 2992 2985 2983 2979 2975 2977 2978 2979 2975 2969 2965 2960 2951 2951 2951 2950 2948 2949 2949
3076 3071 3067 3062 3057 3052 3047 3043 3040 3037 3034 3030 3028 3025 3021 3016 3015 3012 3011 3011 3007 3003 3002 3002 3000 2997 2994 2989 2989 2985 2979 2974 2970 2964 2965 2963 2962 2959 2956 2949 2944 2942 2938 2937 2936 2938 2938
3071 3067 3062 3057 3052 3046 3042 3037 3033 3029 3027 3024 3022 3019 3015 3010 3008 3008 3005 3004 3003 3000 2994 2993 2990 2988 2987 2983 2981 2980 2977 2974 2971 2966 2960 2957 2953 2944 2936 2936 2935 2933 2933 2933 2933 2939 2935
3066 3061 3056 3051 3045 3040 3035 3031 3026 3022 3019 3017 3015 3012 3009 3003 2999 3002 3000 2999 2995 2994 2990 2990 2988 2985 2984 2983 2981 2977 2970 2966 2966 2964 2960 2961 2958 2953 2946 2936 2928 2931 2935 2938 2938 2931 2931
3061 3056 3050 3045 3040 3035 3030 3025 3021 3017 3013 3010 3007 3006 3002 2997 2995 2996 2993 2992 2990 2987 2986 2985 2986 2984 2983 2980 2979 2974 2970 2965 2963 2960 2961 2962 2959 2955 2954 2946 2940 2934 2933 2933 2931 2928 2929
Wind_Speed
11 11 12 13 14 14 14 13 12 11 9 8 6 4 4 4 3 3 3 2 2 2 1 2 2 3 4 3 5 4 5 4 3 3 3 3 3 4 4 5 7 7 6 5 6 7 7
10 11 12 13 14 14 14 13 12 11 9 8 5 3 2 1 2 2 3 4 3 3 3 4 4 5 6 6 5 6 6 5 6 5 3 3 4 5 6 7 7 7 7 7 7 7 10
8 9 10 12 12 13 13 13 12 11 9 8 6 4 2 1 2 3 4 4 5 4 5 5 6 7 9 7 7 7 7 7 8 6 5 5 6 6 7 8 6 8 8 9 9 8 13
6 7 8 9 10 11 11 11 11 10 9 8 7 5 3 3 3 4 5 6 7 7 7 8 9 9 9 9 8 8 8 9 9 8 7 7 7 8 8 9 10 11 9 6 8 13 11
5 5 6 7 7 8 8 9 9 10 9 8 7 6 5 5 4 5 5 6 7 8 9 10 11 12 12 11 10 10 10 10 11 11 9 9 9 10 10 11 11 8 9 12 12 11 16
6 6 6 6 6 6 6 7 7 8 8 8 8 7 6 6 6 7 8 8 9 11 12 13 13 12 13 10 12 12 12 12 11 11 11 11 11 11 11 12 8 8 13 15 16 14 21
8 8 7 7 7 6 7 7 7 7 7 8 8 8 7 7 7 8 8 9 11 12 12 13 13 14 15 17 16 15 14 13 13 12 12 12 14 13 13 13 13 14 15 19 17 20 24
9 10 10 10 10 9 9 8 8 9 9 9 9 9 9 9 9 9 10 10 11 13 16 16 18 19 20 20 19 17 15 13 13 13 13 15 16 14 13 13 15 15 17 21 21 18 24
11 11 11 12 12 11 11 11 11 11 11 11 11 11 11 10 10 11 12 12 13 16 20 22 20 19 17 16 17 16 14 14 14 14 14 16 14 16 18 16 15 17 20 21 21 21 23
12 12 12 12 12 12 11 11 11 12 13 13 14 14 14 13 13 13 13 14 15 17 16 15 13 11 11 10 10 11 10 11 13 12 14 15 17 15 14 16 16 20 20 18 18 17 9
14 15 15 15 15 15 14 14 14 14 14 15 14 15 16 16 16 15 15 15 16 15 5 6 10 10 11 11 8 9 10 12 16 17 18 17 17 17 18 18 20 20 19 19 19 21 24
18 18 18 18 19 18 18 18 18 18 17 18 18 17 17 17 17 17 17 17 16 7 7 6 9 9 12 13 13 13 14 17 20 22 24 24 22 20 19 21 19 19 18 19 21 18 5
18 20 21 22 22 22 22 22 22 22 22 21 21 21 19 19 19 18 17 16 11 7 7 7 11 13 14 16 17 19 22 23 21 13 15 18 22 25 27 26 24 22 15 5 4 0 6
22 22 22 23 25 25 26 26 26 27 27 25 24 24 24 22 21 20 18 17 11 11 14 14 13 15 18 20 26 27 27 26 22 20 21 19 15 19 16 18 18 14 18 9 6 4 5
24 25 27 26 27 28 29 29 29 29 30 29 27 25 26 25 23 22 21 22 15 15 15 18 21 24 28 24 24 24 25 24 20 23 25 10 11 13 18 18 18 16 19 22 20 16 6
25 26 27 28 28 29 30 31 31 31 30 31 30 27 25 24 23 22 24 30 26 23 22 23 25 17 22 20 20 19 20 16 14 17 17 16 20 19 25 26 25 26 18 8 9 4 6
27 29 29 29 29 31 30 31 33 31 32 32 30 29 25 23 24 24 27 32 31 30 29 29 32 32 34 34 33 31 22 21 18 17 18 23 26 28 21 25 28 27 29 24 20 17 5
32 33 34 33 32 32 35 35 34 34 30 31 31 30 23 23 26 27 30 30 31 32 30 31 34 35 37 35 33 33 34 32 23 21 26 28 29 28 31 25 25 26 32 32 24 11 17
31 34 37 40 38 35 32 32 36 34 32 31 33 34 30 24 21 23 25 27 27 29 28 30 29 29 29 30 28 28 31 30 28 29 21 23 20 17 17 21 21 30 36 40 42 39 36
31 33 34 36 37 38 40 42 41 39 38 37 35 34 36 33 27 24 24 29 29 25 26 29 34 35 36 37 36 34 34 30 26 25 28 26 29 30 31 30 18 26 31 33 32 28 27
33 34 35 37 40 42 43 42 40 38 38 38 38 35 35 28 30 35 34 34 37 38 37 32 32 30 27 32 36 39 38 33 32 33 35 39 47 42 51 51 48 49 50 48 42 44 31
23 24 26 28 29 31 31 32 32 31 30 30 30 30 33 32 29 26 32 36 36 38 42 37 36 41 43 44 46 49 44 45 49 46 39 41 48 40 53 50 46 49 54 53 55 56 53
22 23 24 25 25 25 25 24 24 23 22 21 22 25 30 35 33 31 30 30 24 29 26 24 27 30 33 34 35 38 41 47 41 44 42 38 38 32 37 43 35 32 52 50 51 49 46
25 25 26 26 27 27 27 26 24 24 23 21 21 22 24 30 28 29 30 33 37 35 48 47 43 47 40 45 37 33 37 44 49 49 47 50 42 36 30 30 17 44 46 41 39 41 40
26 27 28 28 29 29 29 28 28 26 26 24 24 24 26 31 27 22 19 21 21 26 32 39 36 31 35 37 34 31 34 35 45 51 54 52 52 39 31 36 38 32 27 23 27 31 33
28 29 29 30 30 31 31 30 28 26 26 25 24 26 29 31 28 33 25 21 29 23 27 23 26 30 32 35 34 22 18 21 17 17 26 31 45 52 41 23 21 22 19 17 21 21 28
32 32 32 32 32 32 32 31 30 28 25 27 25 24 26 31 27 22 31 34 23 22 32 28 28 28 24 23 21 22 27 30 26 19 17 19 22 39 48 34 12 13 16 13 4 9 14
33 33 33 33 34 34 33 31 30 28 27 27 23 24 26 33 35 17 14 24 32 30 29 24 25 15 24 15 16 16 17 8 13 31 18 17 20 18 16 12 6 20 22 14 14 18 14
33 33 34 34 33 33 32 30 28 26 25 27 26 20 25 30 32 27 14 13 13 8 15 20 23 20 19 17 17 25 37 39 25 24 37 24 27 35 17 8 23 21 13 9 6 4 4
Wind_Direction
41 44 47 47 48 49 51 54 55 59 62 67 81 113 136 146 167 180 190 217 248 270 315 328 327 292 270 247 241 234 232 227 232 226 218 223 243 258 262 281 278 275 281 286 293 284 296
38 44 43 46 46 46 48 50 52 55 58 62 63 70 87 124 203 221 239 250 262 271 283 287 280 272 260 254 260 246 244 246 249 243 247 260 266 266 267 281 280 290 273 275 308 274 305
33 37 39 41 42 43 41 44 43 42 46 52 52 41 15 287 264 260 265 272 278 283 283 283 280 274 263 261 257 254 255 254 256 261 264 266 270 272 276 289 277 292 279 288 291 286 302
20 25 29 32 35 38 37 35 35 36 33 32 29 23 4 325 298 285 284 286 286 282 275 277 277 274 270 258 254 257 259 256 256 260 263 266 273 278 281 284 289 295 282 278 301 300 298
349 4 10 14 19 23 26 29 27 22 18 19 15 1 346 331 315 300 300 296 289 281 278 276 275 269 270 259 249 256 256 256 252 253 259 266 272 280 280 282 284 275 279 297 311 300 298
317 328 339 346 354 356 358 8 13 7 7 4 360 349 340 330 312 302 301 295 291 286 282 280 274 264 259 253 255 259 257 256 254 254 259 264 266 271 277 278 265 279 286 293 303 302 296
299 305 308 313 319 325 332 342 342 341 342 343 342 339 338 330 319 310 305 301 300 293 283 276 267 261 262 269 264 261 260 256 255 256 257 264 266 276 278 275 274 280 282 290 305 298 292
289 295 299 303 305 308 311 317 321 321 320 321 319 318 321 323 321 315 314 312 307 297 293 284 278 271 266 264 260 256 253 256 253 253 259 268 274 274 273 271 273 271 281 292 300 299 297
294 293 296 298 299 302 305 307 306 306 307 309 307 306 307 309 309 309 312 309 306 305 302 290 277 267 262 259 254 248 248 252 254 251 267 267 272 275 273 269 271 274 284 295 292 296 291
294 297 298 298 299 303 306 308 308 308 306 303 301 300 301 302 302 304 305 305 307 310 303 282 263 248 245 240 241 233 229 252 256 263 267 274 272 266 261 269 274 282 290 291 290 296 290
289 291 293 294 296 298 299 301 301 302 304 304 304 303 300 298 297 298 299 301 307 314 331 274 240 245 233 225 234 230 248 259 271 273 271 267 270 272 269 276 279 279 280 286 287 289 290
288 289 291 292 293 295 297 298 299 298 299 299 299 300 300 300 298 296 297 299 305 296 256 259 250 243 232 231 240 257 276 280 282 275 270 271 269 266 268 277 272 271 276 287 285 278 274
282 285 290 291 293 295 296 296 296 296 295 295 296 296 296 295 294 294 293 293 296 226 273 265 259 252 245 246 257 271 279 281 274 268 267 271 270 271 272 267 262 262 261 297 301 221 232
283 286 285 288 291 292 292 292 293 294 294 293 293 293 292 290 289 287 285 280 243 254 251 270 277 270 255 265 276 278 276 274 263 247 267 280 276 267 260 248 251 237 232 213 246 227 262
284 285 287 290 290 291 292 293 293 293 293 292 291 289 288 287 286 282 276 261 253 267 271 272 275 279 275 272 265 271 274 268 254 260 261 258 252 255 256 256 242 236 238 254 249 277 297
288 287 287 289 289 290 292 293 293 293 292 293 292 291 288 287 284 279 271 262 261 267 270 270 273 273 271 271 271 272 272 272 261 258 245 259 277 271 258 252 243 236 251 230 208 248 245
290 291 289 289 290 291 291 292 292 292 294 295 297 297 297 291 284 276 267 270 276 275 274 275 275 271 271 274 273 268 261 265 262 252 255 259 258 271 255 242 247 248 250 243 246 240 213
295 292 291 293 295 291 287 287 290 290 290 296 299 300 295 288 282 275 274 279 282 280 277 276 275 274 274 276 270 266 263 262 262 270 272 266 257 260 268 269 262 252 253 252 234 241 232
295 291 290 291 294 297 298 299 288 285 290 290 293 294 296 294 286 282 277 275 276 276 275 276 275 276 279 274 270 271 269 272 271 273 257 252 245 273 277 270 258 249 250 250 252 254 249
296 297 296 294 294 294 296 299 299 297 294 291 293 294 291 291 290 283 286 283 278 277 279 276 277 275 272 271 270 267 270 279 279 259 244 249 260 256 256 262 267 269 268 267 267 248 249
301 300 297 293 293 293 295 297 295 293 289 289 289 288 286 277 276 282 281 274 277 281 283 284 280 279 274 270 270 265 273 273 259 254 255 261 266 262 263 263 264 266 268 265 258 257 245
326 322 317 314 311 309 307 305 304 300 294 289 282 276 274 273 271 266 278 273 281 292 281 284 281 274 275 281 283 283 276 269 274 274 267 264 261 262 262 268 268 267 267 267 265 266 257
343 341 339 339 340 339 338 336 332 330 323 306 295 284 280 279 276 275 279 275 270 271 268 267 259 271 274 281 262 261 266 271 266 266 267 261 252 247 262 277 272 256 263 269 267 269 266
342 340 337 335 331 327 325 324 323 324 324 324 319 313 304 294 294 291 280 267 273 274 287 284 276 293 287 274 264 261 268 273 270 254 255 261 257 256 263 269 247 264 269 264 263 271 265
340 337 334 331 328 326 323 319 316 313 310 308 307 307 306 305 310 315 315 307 296 289 280 282 294 296 291 298 313 309 290 285 279 263 261 260 251 254 253 248 252 262 259 257 254 259 261
336 333 331 329 327 324 323 321 317 308 304 303 302 299 297 300 306 309 307 309 316 313 314 310 305 306 303 294 296 290 290 284 277 268 263 258 253 245 247 259 264 256 246 250 258 264 274
331 328 327 325 322 319 318 318 317 312 305 300 300 302 299 295 302 298 299 301 301 298 306 317 318 324 329 330 305 283 275 289 300 297 336 333 287 249 245 245 231 333 346 341 267 293 299
333 330 327 325 324 321 318 315 314 312 308 302 300 296 296 293 296 309 326 301 294 293 294 305 316 327 324 325 313 309 295 292 325 316 334 336 322 302 325 301 248 349 329 320 294 270 257
334 330 328 325 323 320 318 319 318 313 307 303 301 300 293 295 296 307 318 313 321 299 288 285 304 322 315 308 294 295 294 304 310 298 305 298 295 292 285 290 306 330 327 296 275 255 241